Regional Weather Roundup
Issued by NWS

Home | Current Version | Previous Version | Text Only | Print | Product List | Glossary Off
Versions: 1 2 3 4 5 6 7 8 9 10 11 12 13 14 15 16 17 18 19 20 21 22 23 24 25 26 27 28 29 30 31 32 33 34 35 36 37 38 39 40 41 42 43 44 45 46 47 48 49 50

000
ASUS45 KCYS 021110
RWRWY

WYOMING REGIONAL WEATHER ROUNDUP
NATIONAL WEATHER SERVICE CHEYENNE WY
500 AM MDT SUN AUG 02 2015

NOTE:  "FAIR" INDICATES FEW OR NO CLOUDS BELOW 12,000 FEET
WITH NO SIGNIFICANT WEATHER AND/OR OBSTRUCTIONS TO VISIBILITY.

WYZ001-021200-
YELLOWSTONE NATIONAL PARK

CITY           SKY/WX    TMP DP  RH WIND       PRES   REMARKS
LK YELLOWSTONE   N/A     41  34  76 NW3       30.33F
W YELLOWSTONE  NOT AVBL

$$
WYZ002>013-054>058-071-098>099-021200-
NORTHERN WYOMING

CITY           SKY/WX    TMP DP  RH WIND       PRES   REMARKS
JACKSON        NOT AVBL
CODY           FAIR      64  34  32 SW8       30.07R
GREYBULL       FAIR      59  43  55 CALM      29.98S
WORLAND        FAIR      51  25  36 SE3       30.00R
SHERIDAN       FAIR      62  41  46 S5        29.96S
BUFFALO        FAIR      70  30  22 SW8       30.04S
GILLETTE         N/A     70  32  24 CALM      29.98S
HULETT         FAIR      63  46  55 SE3       30.00S
NEWCASTLE      FAIR      61  50  67 N3        30.00S

$$
WYZ014>020-022>026-101>103-021200-
CENTRAL WYOMING

CITY           SKY/WX    TMP DP  RH WIND       PRES   REMARKS
BIG PINEY      FAIR      45  29  53 CALM      30.24S
PINEDALE       FAIR      43  32  65 NW5       30.24F
DUBOIS         FAIR      48  28  46 NW12      30.26F
LANDER         FAIR      63  30  28 SW7       30.10F
RIVERTON       FAIR      62  33  33 NW13      30.11S
CASPER         FAIR      54  32  43 W5        30.09R
DOUGLAS        FAIR      55  50  83 CALM      30.06S

$$
WYZ021-027>030-104>119-021200-
SOUTHERN WYOMING

CITY           SKY/WX    TMP DP  RH WIND       PRES   REMARKS
EVANSTON       FAIR      59  29  31 NE5       30.22F
KEMMERER       FAIR      54  30  40 NW8       30.25S
FORT BRIDGER   SUNNY     59  27  29 W5        30.24S
ROCK SPRINGS   FAIR      57  26  30 W8        30.19R
DIXON          FAIR      51  39  63 SE6       30.22S
RAWLINS        FAIR      51  35  54 CALM      30.19S
SARATOGA       FAIR      50  34  53 SE7       30.22R
LARAMIE        FAIR      47  43  86 SW7       30.22R
CHEYENNE       FAIR      58  50  75 W12       30.12F
TORRINGTON     FAIR      60  56  86 CALM      29.98F
PINE BLUFFS    FAIR      54  52  94 CALM      30.07S

$$



USA.gov is the U.S. government's official web portal to all federal, state and local government web resources and services.